星链-5255 (STARLINK-5255 )

导读 | 豆包AI

STARLINK-5255是美国太空探索技术公司(SpaceX)星链互联网卫星星座中的一颗卫星,于2022年10月28日发射入轨,属于星链项目大规模组网阶段的批量发射卫星,主要承担为全球提供低延迟、高速率宽带互联网服务的任务,运行在近地轨道,是星链星座构建全球卫星互联网覆盖的组成单元。

Basic Information
目录编号:
54208
目录名称:
STARLINK-5255
国际标识:
2022-141BD
轨道中心:
EARTH
卫星名称:
星链-5255
卫星全名:
星链-5255 (STARLINK-5255 )
卫星状态:
在轨 (已飞行1234 天)
发射日期:
2022-10-28 UTC
国别 :
美国 (US)
星等 :
--
Orbit Information
数据来源 国际轨道数据 AOE轨道数据
星历时间 2026-03-15T07:04:30+0800
14小时前
查看轨道信息
2026-03-13T15:00:00+0800
2天前
查看轨道信息
半长轴 6917.875km 6917.79km
偏心率 0.0001419 0.0001318
轨道倾角 53.218° 53.217°
近地点辐角 83.600° 98.272°
升交点赤经 305.503° 312.999°
平近点角 276.516° 186.917°
近地点 538.756km 538.741km
远地点 540.72km 540.565km
周期 95.437分钟 95.436分钟
每日圈数 15.08842 15.088696
Detailed Information
固有亮度:
5
最大亮度:
2.5
卫星平台:
Starlink v1.5
覆盖范围:
全球
运营商:
太空探索技术公司
运营商所在国:
美国
制造商(研发单位):
太空探索技术公司
制造商所在国:
美国
使用方式:
暂无
Satellite Introduction
星链(Starlink)计划是由太空探索技术公司(SpaceX)提出的一个巨型低轨卫星互联网星座项目,计划在2019年至2024年间在太空搭建由约1.2万颗卫星组成的“星链”网络,其中1584颗将部署在地球上空550千米处的近地轨道,并从2020年开始工作。该卫星仍在工作。
2D Orbit Map
3D Orbit Map
Orbit Altitude Analysis Chart
Orbit Inclination Analysis Chart
Orbit Comprehensive Analysis Chart
View Comprehensive Chart